GAF350 EDDB-EDDM

Flight info

Callsign GAF350
Flight time 0h 50m
Altitude 28000
Route LUROS3Q LUROS Y211 BEBKU Z36 MAREM DCT VESUB T106 TUSTO T108 LANDU LANDU2B
Aircraft A359/H-SDE2E3GHIJ3J4J5LM1ORWXY/LB1D1

Departure

Time 2026-05-05 16:55
Airport Berlin Brandenburg Airport (EDDB)

Arrival

Time 2026-05-05 17:46
Airport Munich Airport (EDDM)
Time Latitude Longitude Altitude Speed Heading
2026-05-05 16:29 52.36644 13.50401 161 ft 0 kts 69°
2026-05-05 16:44 52.36644 13.50400 161 ft 1 kts 69°
2026-05-05 16:44 52.36635 13.50365 161 ft 4 kts 68°
2026-05-05 16:45 52.36625 13.50324 161 ft 4 kts 69°
2026-05-05 16:45 52.36615 13.50282 161 ft 4 kts 69°
2026-05-05 16:45 52.36606 13.50241 161 ft 4 kts 69°
2026-05-05 16:45 52.36603 13.50230 161 ft 0 kts 69°
2026-05-05 16:46 52.36603 13.50231 161 ft 0 kts 69°
2026-05-05 16:47 52.36603 13.50232 161 ft 0 kts 69°
2026-05-05 16:47 52.36604 13.50232 161 ft 0 kts 69°
2026-05-05 16:50 52.36604 13.50234 161 ft 2 kts 69°
2026-05-05 16:50 52.36617 13.50238 161 ft 2 kts 355°
2026-05-05 16:51 52.36647 13.50198 161 ft 12 kts 327°
2026-05-05 16:51 52.36742 13.50070 161 ft 23 kts 319°
2026-05-05 16:51 52.36761 13.49861 161 ft 21 kts 245°
2026-05-05 16:51 52.36690 13.49573 161 ft 34 kts 248°
2026-05-05 16:52 52.36590 13.49159 161 ft 44 kts 249°
2026-05-05 16:52 52.36471 13.48654 161 ft 39 kts 249°
2026-05-05 16:52 52.36451 13.48425 161 ft 11 kts 309°
2026-05-05 16:52 52.36512 13.48374 161 ft 9 kts 339°
2026-05-05 16:53 52.36546 13.48353 161 ft 0 kts 339°
2026-05-05 16:53 52.36546 13.48352 161 ft 0 kts 339°
2026-05-05 16:54 52.36551 13.48350 161 ft 4 kts 339°
2026-05-05 16:54 52.36617 13.48308 161 ft 16 kts 339°
2026-05-05 16:54 52.36710 13.48308 161 ft 13 kts 40°
2026-05-05 16:55 52.36791 13.48573 161 ft 42 kts 70°
2026-05-05 16:55 52.37020 13.49537 161 ft 143 kts 68°
2026-05-05 16:55 52.37475 13.51392 634 ft 201 kts 67°
2026-05-05 16:55 52.38012 13.53724 1466 ft 230 kts 68°
2026-05-05 16:56 52.38581 13.56184 2580 ft 237 kts 68°
2026-05-05 16:56 52.39189 13.58792 3481 ft 251 kts 69°
2026-05-05 16:56 52.39831 13.61516 4337 ft 261 kts 69°
2026-05-05 16:56 52.40497 13.64332 5245 ft 269 kts 69°
2026-05-05 16:57 52.41182 13.67229 6185 ft 277 kts 69°
2026-05-05 16:57 52.41886 13.70206 7135 ft 283 kts 69°
2026-05-05 16:57 52.42604 13.73242 8175 ft 288 kts 69°
2026-05-05 16:57 52.43341 13.76338 9216 ft 295 kts 68°
2026-05-05 16:58 52.44359 13.79280 10204 ft 301 kts 50°
2026-05-05 16:58 52.45798 13.81924 10799 ft 323 kts 51°
2026-05-05 16:58 52.46744 13.85393 11205 ft 349 kts 80°
2026-05-05 16:58 52.46654 13.89412 11904 ft 359 kts 106°
2026-05-05 16:59 52.45540 13.93064 12781 ft 362 kts 131°
2026-05-05 16:59 52.43620 13.95694 13682 ft 361 kts 155°
2026-05-05 16:59 52.41233 13.96853 14520 ft 359 kts 178°
2026-05-05 16:59 52.38753 13.96551 15403 ft 358 kts 193°
2026-05-05 17:00 52.36314 13.95629 16238 ft 362 kts 197°
2026-05-05 17:00 52.33845 13.94656 17098 ft 368 kts 195°
2026-05-05 17:00 52.31312 13.93872 17957 ft 373 kts 192°
2026-05-05 17:00 52.28752 13.93327 18729 ft 379 kts 189°
2026-05-05 17:01 52.26112 13.92965 19543 ft 383 kts 187°
2026-05-05 17:01 52.23436 13.92722 20391 ft 387 kts 186°
2026-05-05 17:01 52.20735 13.92536 21217 ft 390 kts 185°
2026-05-05 17:01 52.18002 13.92366 22035 ft 394 kts 185°
2026-05-05 17:02 52.15257 13.92193 22878 ft 397 kts 185°
2026-05-05 17:02 52.12481 13.92008 23583 ft 402 kts 185°
2026-05-05 17:02 52.09681 13.91810 23917 ft 403 kts 186°
2026-05-05 17:02 52.06870 13.91604 24011 ft 405 kts 186°
2026-05-05 17:03 52.04052 13.91394 24018 ft 406 kts 186°
2026-05-05 17:03 52.01224 13.91181 24014 ft 407 kts 186°
2026-05-05 17:03 51.98397 13.90967 24014 ft 407 kts 186°
2026-05-05 17:03 51.95564 13.90754 24014 ft 407 kts 186°
2026-05-05 17:04 51.92732 13.90541 24006 ft 407 kts 186°
2026-05-05 17:04 51.89894 13.90329 24011 ft 408 kts 186°
2026-05-05 17:04 51.87058 13.90116 24012 ft 409 kts 186°
2026-05-05 17:04 51.84220 13.89905 24008 ft 409 kts 186°
2026-05-05 17:05 51.81376 13.89693 24008 ft 409 kts 186°
2026-05-05 17:05 51.78536 13.89481 24008 ft 409 kts 186°
2026-05-05 17:05 51.75692 13.89270 24008 ft 409 kts 186°
2026-05-05 17:05 51.72854 13.89059 24003 ft 409 kts 186°
2026-05-05 17:06 51.70015 13.88849 24000 ft 409 kts 186°
2026-05-05 17:06 51.67212 13.88641 23998 ft 408 kts 185°
2026-05-05 17:06 51.64343 13.88429 23997 ft 407 kts 185°
2026-05-05 17:06 51.61554 13.88223 23997 ft 407 kts 185°
2026-05-05 17:07 51.58690 13.88012 23999 ft 407 kts 185°
2026-05-05 17:07 51.55916 13.87808 23998 ft 407 kts 185°
2026-05-05 17:07 51.53090 13.87600 23998 ft 407 kts 185°
2026-05-05 17:07 51.50262 13.87392 23997 ft 407 kts 185°
2026-05-05 17:08 51.47434 13.87177 23996 ft 406 kts 186°
2026-05-05 17:08 51.44630 13.86661 23994 ft 405 kts 191°
2026-05-05 17:08 51.41850 13.85960 23996 ft 404 kts 192°
2026-05-05 17:08 51.39077 13.85194 23997 ft 404 kts 192°
2026-05-05 17:09 51.36313 13.84395 23995 ft 404 kts 192°
2026-05-05 17:09 51.33547 13.83582 23995 ft 404 kts 192°
2026-05-05 17:09 51.30778 13.82767 23980 ft 404 kts 192°
2026-05-05 17:09 51.28014 13.81959 23978 ft 404 kts 192°
2026-05-05 17:10 51.25251 13.81158 23975 ft 404 kts 192°
2026-05-05 17:10 51.22481 13.80359 23967 ft 404 kts 192°
2026-05-05 17:10 51.19715 13.79564 23973 ft 404 kts 192°
2026-05-05 17:10 51.16945 13.78771 23970 ft 404 kts 192°
2026-05-05 17:11 51.14179 13.77981 23972 ft 404 kts 192°
2026-05-05 17:11 51.11407 13.77189 23972 ft 404 kts 192°
2026-05-05 17:11 51.08638 13.76400 23973 ft 404 kts 192°
2026-05-05 17:11 51.05867 13.75610 23972 ft 404 kts 192°
2026-05-05 17:12 51.03099 13.74822 23974 ft 404 kts 192°
2026-05-05 17:12 51.00329 13.74035 23973 ft 404 kts 192°
2026-05-05 17:12 50.97565 13.73249 23975 ft 404 kts 192°
2026-05-05 17:12 50.94792 13.72463 23976 ft 404 kts 192°
2026-05-05 17:13 50.92025 13.71679 23977 ft 405 kts 192°
2026-05-05 17:13 50.89270 13.70774 23974 ft 404 kts 195°
2026-05-05 17:13 50.86549 13.69652 23974 ft 403 kts 196°
2026-05-05 17:13 50.83845 13.68472 23975 ft 403 kts 197°
2026-05-05 17:14 50.81148 13.67259 23966 ft 403 kts 197°
2026-05-05 17:14 50.78485 13.66048 23965 ft 403 kts 197°
2026-05-05 17:14 50.75755 13.64805 23961 ft 403 kts 197°
2026-05-05 17:14 50.73096 13.63596 23966 ft 403 kts 197°
2026-05-05 17:15 50.70405 13.62374 23959 ft 402 kts 197°
2026-05-05 17:15 50.67721 13.61087 23957 ft 402 kts 198°
2026-05-05 17:15 50.65092 13.59762 23958 ft 402 kts 199°
2026-05-05 17:15 50.62430 13.58399 23949 ft 402 kts 199°
2026-05-05 17:16 50.59772 13.57040 23951 ft 402 kts 199°
2026-05-05 17:16 50.57107 13.55688 23951 ft 402 kts 199°
2026-05-05 17:16 50.54441 13.54348 23943 ft 402 kts 198°
2026-05-05 17:16 50.51782 13.53019 23941 ft 401 kts 198°
2026-05-05 17:17 50.49126 13.51699 23944 ft 400 kts 198°
2026-05-05 17:17 50.46464 13.50380 23944 ft 400 kts 198°
2026-05-05 17:17 50.43817 13.49071 23949 ft 400 kts 198°
2026-05-05 17:17 50.41159 13.47758 23943 ft 400 kts 198°
2026-05-05 17:18 50.38508 13.46448 23942 ft 400 kts 198°
2026-05-05 17:18 50.35850 13.45137 23934 ft 400 kts 198°
2026-05-05 17:18 50.33194 13.43828 23934 ft 400 kts 198°
2026-05-05 17:18 50.30544 13.42523 23934 ft 400 kts 198°
2026-05-05 17:19 50.27889 13.41217 23926 ft 400 kts 198°
2026-05-05 17:19 50.25239 13.39915 23931 ft 400 kts 198°
2026-05-05 17:19 50.22578 13.38610 23926 ft 400 kts 198°
2026-05-05 17:19 50.19923 13.37308 23924 ft 400 kts 198°
2026-05-05 17:20 50.17273 13.36011 23920 ft 400 kts 198°
2026-05-05 17:20 50.15515 13.35151 23921 ft 400 kts 198°
2026-05-05 17:20 50.12884 13.33866 23919 ft 400 kts 198°
2026-05-05 17:20 50.10221 13.32565 23912 ft 400 kts 198°
2026-05-05 17:21 50.07571 13.31273 23917 ft 399 kts 198°
2026-05-05 17:21 50.04916 13.29980 23915 ft 399 kts 198°
2026-05-05 17:21 50.02269 13.28693 23913 ft 399 kts 198°
2026-05-05 17:22 49.96968 13.26120 23913 ft 399 kts 198°
2026-05-05 17:22 49.94315 13.24835 23911 ft 399 kts 198°
2026-05-05 17:22 49.91664 13.23552 23911 ft 399 kts 198°
2026-05-05 17:22 49.89017 13.22271 23909 ft 399 kts 198°
2026-05-05 17:23 49.86361 13.20988 23916 ft 399 kts 198°
2026-05-05 17:23 49.83708 13.19708 23913 ft 400 kts 198°
2026-05-05 17:23 49.81052 13.18427 23823 ft 399 kts 197°
2026-05-05 17:23 49.78404 13.17153 23753 ft 399 kts 197°
2026-05-05 17:24 49.75749 13.15877 23740 ft 399 kts 197°
2026-05-05 17:24 49.73101 13.14606 23747 ft 399 kts 197°
2026-05-05 17:24 49.70453 13.13336 23746 ft 399 kts 197°
2026-05-05 17:24 49.67804 13.12066 23728 ft 399 kts 197°
2026-05-05 17:25 49.65150 13.10796 23727 ft 399 kts 197°
2026-05-05 17:25 49.63358 13.09939 23727 ft 399 kts 197°
2026-05-05 17:25 49.59844 13.08261 23729 ft 399 kts 197°
2026-05-05 17:25 49.57187 13.06994 23727 ft 399 kts 197°
2026-05-05 17:26 49.54548 13.05737 23730 ft 399 kts 197°
2026-05-05 17:26 49.51875 13.04466 23731 ft 400 kts 197°
2026-05-05 17:26 49.49218 13.03203 23735 ft 400 kts 197°
2026-05-05 17:26 49.46559 13.01941 23735 ft 400 kts 197°
2026-05-05 17:27 49.43902 13.00674 23733 ft 400 kts 197°
2026-05-05 17:27 49.41301 12.99169 23733 ft 400 kts 202°
2026-05-05 17:27 49.38753 12.97440 23729 ft 401 kts 204°
2026-05-05 17:27 49.36221 12.95641 23735 ft 401 kts 204°
2026-05-05 17:28 49.33707 12.93810 23732 ft 401 kts 205°
2026-05-05 17:28 49.31190 12.91962 23735 ft 401 kts 205°
2026-05-05 17:28 49.28677 12.90115 23730 ft 401 kts 205°
2026-05-05 17:28 49.26162 12.88274 23731 ft 401 kts 205°
2026-05-05 17:29 49.23641 12.86435 23739 ft 400 kts 204°
2026-05-05 17:29 49.21131 12.84607 23739 ft 399 kts 204°
2026-05-05 17:29 49.18625 12.82784 23736 ft 399 kts 204°
2026-05-05 17:29 49.16118 12.80968 23740 ft 399 kts 204°
2026-05-05 17:30 49.13611 12.79155 23739 ft 399 kts 204°
2026-05-05 17:30 49.11108 12.77347 23660 ft 395 kts 204°
2026-05-05 17:30 49.08641 12.75566 22997 ft 392 kts 204°
2026-05-05 17:30 49.06153 12.73772 21824 ft 400 kts 204°
2026-05-05 17:31 49.03608 12.71938 20649 ft 409 kts 204°
2026-05-05 17:31 49.01019 12.70080 19643 ft 412 kts 205°
2026-05-05 17:31 48.98460 12.68246 18870 ft 410 kts 205°
2026-05-05 17:31 48.95888 12.66404 18121 ft 407 kts 205°
2026-05-05 17:32 48.93338 12.64578 17284 ft 404 kts 205°
2026-05-05 17:32 48.90815 12.62773 16554 ft 398 kts 205°
2026-05-05 17:32 48.88326 12.60989 15819 ft 392 kts 205°
2026-05-05 17:32 48.85866 12.59234 15067 ft 388 kts 205°
2026-05-05 17:33 48.83436 12.57508 14347 ft 383 kts 205°
2026-05-05 17:33 48.81038 12.55810 13626 ft 379 kts 205°
2026-05-05 17:33 48.78663 12.54129 12840 ft 374 kts 205°
2026-05-05 17:33 48.76283 12.52582 12063 ft 370 kts 202°
2026-05-05 17:34 48.73900 12.51201 11355 ft 364 kts 201°
2026-05-05 17:34 48.71546 12.49898 10915 ft 353 kts 200°
2026-05-05 17:34 48.69299 12.48687 10801 ft 332 kts 200°
2026-05-05 17:34 48.67199 12.47562 10781 ft 309 kts 201°
2026-05-05 17:35 48.65296 12.46284 10695 ft 292 kts 208°
2026-05-05 17:35 48.63630 12.44649 10475 ft 280 kts 218°
2026-05-05 17:35 48.62230 12.42660 10101 ft 275 kts 228°
2026-05-05 17:35 48.60987 12.40476 9660 ft 273 kts 224°
2026-05-05 17:36 48.59394 12.38974 9204 ft 271 kts 202°
2026-05-05 17:36 48.57647 12.37925 8741 ft 270 kts 204°
2026-05-05 17:36 48.55932 12.36810 8264 ft 268 kts 204°
2026-05-05 17:36 48.54222 12.35686 7778 ft 268 kts 204°
2026-05-05 17:37 48.52514 12.34573 7313 ft 268 kts 204°
2026-05-05 17:37 48.50808 12.33461 6875 ft 267 kts 204°
2026-05-05 17:37 48.49127 12.32371 6446 ft 264 kts 204°
2026-05-05 17:37 48.47441 12.31288 6003 ft 264 kts 205°
2026-05-05 17:38 48.45746 12.30226 5525 ft 264 kts 204°
2026-05-05 17:38 48.44047 12.29189 5129 ft 264 kts 204°
2026-05-05 17:38 48.42343 12.28138 5004 ft 267 kts 205°
2026-05-05 17:38 48.40653 12.26983 4987 ft 267 kts 213°
2026-05-05 17:39 48.39222 12.25236 4995 ft 266 kts 230°
2026-05-05 17:39 48.38118 12.23040 4972 ft 257 kts 245°
2026-05-05 17:39 48.37728 12.20571 5005 ft 234 kts 264°
2026-05-05 17:39 48.37567 12.18230 5003 ft 217 kts 264°
2026-05-05 17:40 48.37395 12.16067 5002 ft 201 kts 264°
2026-05-05 17:40 48.37211 12.14065 4995 ft 186 kts 262°
2026-05-05 17:40 48.37020 12.12174 5007 ft 181 kts 262°
2026-05-05 17:40 48.36821 12.10309 5004 ft 179 kts 261°
2026-05-05 17:41 48.36624 12.08537 5020 ft 164 kts 260°
2026-05-05 17:41 48.36514 12.06871 4984 ft 158 kts 266°
2026-05-05 17:41 48.36398 12.05238 4779 ft 156 kts 265°
2026-05-05 17:41 48.36267 12.03639 4548 ft 153 kts 264°
2026-05-05 17:42 48.36143 12.02068 4328 ft 149 kts 265°
2026-05-05 17:42 48.36024 12.00528 4112 ft 147 kts 266°
2026-05-05 17:42 48.35909 11.99023 3923 ft 143 kts 265°
2026-05-05 17:42 48.35795 11.97571 3734 ft 139 kts 267°
2026-05-05 17:43 48.35684 11.96120 3548 ft 138 kts 266°
2026-05-05 17:43 48.35575 11.94690 3373 ft 138 kts 266°
2026-05-05 17:43 48.35464 11.93261 3188 ft 138 kts 268°
2026-05-05 17:43 48.35356 11.91827 3011 ft 138 kts 266°
2026-05-05 17:44 48.35246 11.90414 2831 ft 138 kts 266°
2026-05-05 17:44 48.35136 11.88994 2643 ft 136 kts 266°
2026-05-05 17:44 48.35027 11.87580 2454 ft 137 kts 267°
2026-05-05 17:44 48.34917 11.86149 2271 ft 137 kts 266°
2026-05-05 17:45 48.34809 11.84726 2076 ft 137 kts 265°
2026-05-05 17:45 48.34698 11.83283 1890 ft 142 kts 264°
2026-05-05 17:45 48.34583 11.81800 1710 ft 143 kts 265°
2026-05-05 17:45 48.34469 11.80315 1529 ft 143 kts 265°
2026-05-05 17:46 48.34353 11.78885 1490 ft 129 kts 265°
2026-05-05 17:46 48.34271 11.77737 1484 ft 80 kts 263°
2026-05-05 17:46 48.34257 11.77267 1481 ft 37 kts 283°
2026-05-05 17:46 48.34357 11.76924 1479 ft 36 kts 294°
2026-05-05 17:47 48.34393 11.76797 1478 ft 0 kts 291°
2026-05-05 17:47 48.34394 11.76794 1478 ft 1 kts 291°
2026-05-05 17:47 48.34402 11.76767 1492 ft 5 kts 298°
2026-05-05 17:48 48.34445 11.76713 1480 ft 13 kts 330°
2026-05-05 17:48 48.34568 11.76685 1484 ft 23 kts 354°
2026-05-05 17:48 48.34660 11.76668 1484 ft 0 kts 353°
2026-05-05 17:50 48.34677 11.76664 1485 ft 8 kts 353°
2026-05-05 17:50 48.34736 11.76605 1477 ft 15 kts 289°
2026-05-05 17:50 48.34727 11.76404 1486 ft 24 kts 263°
2026-05-05 17:51 48.34702 11.76108 1483 ft 32 kts 263°
2026-05-05 17:51 48.34678 11.75775 1488 ft 33 kts 264°
2026-05-05 17:51 48.34658 11.75502 1489 ft 16 kts 263°
2026-05-05 17:51 48.34642 11.75418 1483 ft 3 kts 212°
2026-05-05 17:52 48.34614 11.75409 1482 ft 5 kts 182°
2026-05-05 17:52 48.34570 11.75414 1483 ft 8 kts 173°
2026-05-05 17:52 48.34564 11.75415 1484 ft 0 kts 173°